Regional Weather Roundup
Issued by NWS Binghamton, NY

Home | Current Version | Previous Version | Text Only | Print | Product List | Glossary On
Versions: 1 2 3 4 5 6 7 8 9 10 11 12 13 14 15 16 17 18 19 20 21 22 23 24 25 26 27 28 29 30 31 32 33 34 35 36 37 38 39 40 41 42 43 44 45 46 47 48 49 50
000
ASUS41 KBGM 051210
RWRBGM
RWRBGM
BINGHAMTON REGIONAL WEATHER ROUNDUP
NATIONAL WEATHER SERVICE BINGHAMTON NY
700 AM EST THU MAR 05 2015

Note: "fair" indicates few or no clouds below 12,000 feet with no
significant weather and/or obstructions to visibility.

* = Station(s) that does not report precipitation, such as rain,
snow, etc, also no thunder or fog.

!NYZ009-015>018-022>025-036-037-044>046-055>057-062-051300
...CENTRAL NEW YORK...

CITY           SKY/WX    TMP DP  RH WIND       PRES   REMARKS
BINGHAMTON     CLOUDY    12   1  61 N16       30.06S WCI  -5
CORTLAND       MOCLDY    14   3  62 NW10G17   30.14R WCI   1
DANSVILLE      CLOUDY    13   4  67 NW12      30.22R WCI  -1
ELMIRA         CLOUDY    15   5  64 N9        30.18R WCI   3
ITHACA         CLOUDY    13   3  64 NW12      30.16R WCI  -1
MONTICELLO     CLOUDY    21  10  63 NW16G25   30.01R WCI   7
NORWICH        CLEAR     16   1  53 N13       30.12R WCI   2
ONEONTA        CLEAR     12   0  57 NW10G16   30.01F WCI  -1
PENN YAN       CLOUDY    13   1  59 NW8       30.19R WCI   2
ROME           CLOUDY    15   2  56 NW15      30.17R WCI   0
SIDNEY         PTCLDY    18   7  62 N6        30.10F WCI   9
SYRACUSE       CLOUDY    12   4  70 W14       30.19R WCI  -3
$$

!PAZ038>040-043-044-047-048-072-051300
...NORTHEAST PENNSYLVANIA...

CITY           SKY/WX    TMP DP  RH WIND       PRES   REMARKS
HAZLETON       LGT SNOW  23  18  80 N13G26    30.02R WCI  11
SCRANTON       LGT SNOW  23  14  68 N12       30.07R WCI  12
TOWANDA*       CLEAR     18   3  53 N13G22    30.17R WCI   4
$$
&&
KEY
WCI = WIND CHILL INDEX
VSB = VISIBILITY
HX  = HEAT INDEX
$$


USA.gov is the U.S. government's official web portal to all federal, state and local government web resources and services.